#timestamp,LO_Frequency,Hit,StdDev 
1621396815.7,286047000.1,N
1621396835.5,286047003.8,N
1621396855.4,286047001.7,N
1621396875.2,286047002.0,N
1621396895.1,286047003.1,N
1621396896.0,286047003.1,N
1621396915.8,286047005.7,Y
1621396935.6,286047001.5,P
1621396955.5,286047004.3,P
1621396975.3,286047003.6,N
1621396995.2,286047001.5,N
1621397015.0,286047000.9,N
1621397015.9,286047000.9,N
1621397035.7,286046999.6,N
1621397055.6,286046996.9,N
1621397075.4,286047001.0,N
1621397095.3,286047001.2,N
1621397115.1,286047002.0,N
1621397135.8,286047001.9,N
1621397155.7,286047000.2,N
1621397175.5,286047002.2,N
1621397195.4,286047001.9,N
1621397215.2,286047003.4,N
1621397235.0,286047004.6,N
1621397235.9,286047004.6,N
1621397255.8,286047003.7,N
1621397275.6,286047001.3,N
1621397295.4,286047003.5,N
1621397315.3,286047005.8,Y
1621397335.1,286047003.1,P
1621397355.9,286047001.9,P
1621397375.7,286047000.5,N
1621397395.5,286046999.3,N
1621397415.4,286047000.1,N
1621397435.2,286047000.9,N
1621397455.1,286047001.2,N
1621397456.0,286047001.2,N
1621397475.8,286047000.8,N
1621397495.6,286046999.0,N
1621397515.5,286046999.6,N
1621397535.3,286046996.8,N
1621397555.2,286046997.9,N
1621397575.9,286046994.9,Y
1621397595.7,286046997.4,P
1621397615.6,286046998.3,N
1621397635.4,286046998.8,N
1621397655.2,286046998.9,N
1621397675.1,286046997.6,N
1621397676.0,286046997.6,N
1621397695.8,286046993.5,Y
1621397715.7,286046996.6,P
1621397735.5,286046997.9,N
1621397755.3,286046995.5,P
1621397775.2,286046995.1,Y
1621397795.0,286046999.3,P
1621397795.9,286046999.3,N
1621397815.8,286046996.9,P
1621397835.6,286046999.0,N
1621397855.4,286047002.5,N
1621397875.3,286047001.5,N
1621397895.1,286047001.5,N
1621397915.8,286047004.4,N
1621397935.7,286047001.3,N
1621397955.5,286047000.0,N
1621397975.4,286046999.5,N
1621397995.2,286046998.8,N
1621398015.0,286046999.6,N
1621398015.9,286046999.6,N
1621398035.8,286046998.6,N
1621398055.6,286046999.2,N
1621398075.4,286046996.5,N
1621398095.3,286046996.6,N
1621398115.1,286046999.8,N
1621398135.9,286047000.2,N
1621398155.7,286047002.4,N
1621398175.5,286047002.9,N
1621398195.4,286047001.5,N
1621398215.2,286047001.5,N
1621398235.0,286047003.0,N
1621398235.9,286047003.0,N
1621398255.8,286047004.9,N
1621398275.6,286047005.7,N
1621398295.5,286047008.8,Y
1621398315.3,286047006.4,P
1621398335.1,286047007.0,N
1621398355.9,286047005.8,N
1621398375.7,286047003.2,N
1621398395.5,286047003.8,N
1621398415.4,286047003.0,N
1621398435.2,286047006.0,N
1621398455.1,286047004.8,N
1621398456.0,286047004.8,N
1621398475.8,286047007.6,Y
1621398495.6,286047000.9,P
1621398515.5,286047000.8,N
1621398535.3,286047000.6,N
1621398555.2,286047000.8,N
1621398575.0,286046999.4,N
1621398575.9,286046999.4,N
1621398595.7,286046997.4,N
1621398615.6,286046995.5,N
1621398635.4,286046999.6,N
1621398655.3,286046999.1,N
1621398675.1,286046999.7,N
1621398695.8,286046999.8,N
1621398715.7,286047001.3,N
1621398735.5,286047003.4,N
1621398755.4,286047000.1,N
1621398775.2,286046999.2,N
1621398795.0,286046996.5,N
1621398795.9,286046996.5,N
1621398815.8,286046999.6,N
1621398835.6,286046999.5,N
1621398855.5,286046999.1,N
1621398875.3,286046999.3,N
1621398895.1,286046999.2,N
1621398915.9,286046998.2,N
1621398935.7,286047000.6,N
1621398955.5,286047002.7,N
1621398975.4,286047000.9,N
1621398995.2,286046998.4,N
1621399015.1,286046995.2,N
1621399016.0,286046995.2,N
1621399035.8,286046993.6,Y
1621399055.6,286046993.6,P
1621399075.5,286046994.6,N
1621399095.3,286046996.3,N
1621399115.2,286046997.0,N
1621399135.9,286046997.4,N
1621399155.7,286046993.3,Y
1621399175.6,286046999.0,P
1621399195.4,286046999.5,N
1621399215.2,286046996.6,N
1621399235.1,286046996.6,N
1621399236.0,286046996.6,N
1621399255.8,286046999.8,N
1621399275.7,286047001.0,N
1621399295.5,286047001.9,N
1621399315.3,286047002.1,N
1621399335.2,286047000.3,N
1621399355.0,286047004.2,N
1621399355.9,286047004.2,N
1621399375.7,286047005.9,N
1621399395.6,286047001.4,N
1621399415.4,286047002.9,N
1621399435.3,286047003.5,N
1621399455.1,286047003.0,N
1621399456.0,286047003.0,N
1621399475.8,286047003.3,N
1621399495.7,286047003.8,N
1621399515.5,286047002.4,N
1621399535.3,286047001.7,N
1621399555.2,286047004.2,N
1621399575.0,286047005.3,N
1621399575.9,286047005.3,N
1621399595.8,286047004.6,N
1621399615.6,286047005.1,N
1621399635.4,286047004.3,N
1621399655.3,286047005.4,N
1621399675.1,286047005.7,N
1621399695.8,286047005.7,N
1621399715.7,286047001.7,N
1621399735.5,286047001.1,N
1621399755.4,286047000.7,N
1621399775.2,286046998.5,N
1621399795.0,286046999.8,N
1621399795.9,286046999.8,N
1621399815.8,286047001.5,N
1621399835.6,286047001.5,N
1621399855.5,286047001.9,N
1621399875.3,286047001.0,N
1621399895.1,286046999.1,N
1621399915.9,286046999.0,N
1621399935.7,286047000.0,N
1621399955.5,286047002.0,N
1621399975.4,286047004.4,N
1621399995.2,286047001.4,N
1621400015.1,286047002.2,N
1621400016.0,286047002.2,N
1621400035.8,286047001.2,N
1621400055.6,286047002.1,N
1621400075.5,286047004.3,N
1621400095.3,286046999.7,N
1621400115.1,286047001.0,N
1621400135.9,286046999.9,N
1621400155.7,286047001.7,N
1621400175.6,286047003.4,N
1621400195.4,286047003.4,N
1621400215.2,286047001.4,N
1621400235.1,286047002.0,N
1621400236.0,286047002.0,N
1621400255.8,286047001.8,N
1621400275.6,286047002.5,N
1621400295.5,286047003.1,N
1621400315.3,286047004.5,Y
1621400335.2,286047007.2,P
1621400355.9,286047007.2,N
1621400375.7,286047002.9,N
1621400395.6,286047002.7,N
